TimeEDT,TemperatureF,Dew PointF,Humidity,Sea Level PressureIn,VisibilityMPH,Wind Direction,Wind SpeedMPH,Gust SpeedMPH,PrecipitationIn,Events,Conditions,WindDirDegrees,DateUTC
12:51 AM,57.0,55.0,93,30.09,8.0,NNE,3.5,-,N/A,,Overcast,20,2012-10-24 04:51:00
1:51 AM,57.0,55.0,93,30.09,7.0,NNE,5.8,-,N/A,,Overcast,20,2012-10-24 05:51:00
2:51 AM,57.0,55.0,93,30.10,7.0,NNE,4.6,-,N/A,,Overcast,20,2012-10-24 06:51:00
3:51 AM,57.0,55.0,93,30.10,6.0,NNE,6.9,-,N/A,,Overcast,20,2012-10-24 07:51:00
4:51 AM,57.0,55.0,93,30.11,6.0,NNE,6.9,-,N/A,,Overcast,20,2012-10-24 08:51:00
5:51 AM,55.9,54.0,93,30.12,6.0,NNE,8.1,-,N/A,,Overcast,20,2012-10-24 09:51:00
6:51 AM,55.4,53.6,94,30.12,6.0,NNE,8.1,-,N/A,,Overcast,20,2012-10-24 10:51:00
7:51 AM,57.0,55.0,93,30.14,3.0,NNE,8.1,-,0.00,Rain,Light Rain,20,2012-10-24 11:51:00
8:04 AM,57.2,55.4,94,30.14,3.0,NNE,5.8,-,0.00,Rain,Light Rain,20,2012-10-24 12:04:00
8:27 AM,57.2,55.4,94,30.15,3.0,NNE,5.8,-,0.00,,Light Drizzle,20,2012-10-24 12:27:00
8:48 AM,57.2,55.4,94,30.15,3.0,North,6.9,-,0.00,Rain,Light Rain,10,2012-10-24 12:48:00
8:51 AM,57.0,55.0,93,30.15,3.0,North,6.9,-,0.00,Rain,Light Rain,10,2012-10-24 12:51:00
9:44 AM,57.2,55.4,94,30.14,3.0,NNE,8.1,-,0.06,Rain,Light Rain,20,2012-10-24 13:44:00
9:51 AM,57.0,55.9,96,30.15,3.0,NNE,8.1,-,0.06,Rain,Light Rain,20,2012-10-24 13:51:00
9:58 AM,57.2,55.4,94,30.15,3.0,North,6.9,-,0.00,Rain,Light Rain,10,2012-10-24 13:58:00
10:41 AM,57.2,55.4,94,30.14,3.0,NNE,6.9,-,0.00,,Overcast,20,2012-10-24 14:41:00
10:51 AM,57.2,55.4,94,30.14,3.0,North,6.9,-,N/A,,Overcast,10,2012-10-24 14:51:00
11:12 AM,59.0,55.4,88,30.14,3.0,North,6.9,-,N/A,,Overcast,360,2012-10-24 15:12:00
11:44 AM,60.8,55.4,82,30.13,3.0,NE,4.6,-,N/A,,Overcast,40,2012-10-24 15:44:00
11:51 AM,60.1,55.9,86,30.14,3.0,NNE,4.6,-,N/A,,Overcast,30,2012-10-24 15:51:00
12:51 PM,61.0,55.9,83,30.13,3.0,North,4.6,-,N/A,,Haze,10,2012-10-24 16:51:00
1:34 PM,60.8,55.4,82,30.12,3.0,NNE,5.8,-,N/A,,Haze,20,2012-10-24 17:34:00
1:51 PM,61.0,55.9,83,30.12,3.0,NNE,5.8,-,N/A,,Haze,20,2012-10-24 17:51:00
2:51 PM,60.1,55.0,83,30.11,6.0,East,6.9,-,N/A,,Haze,90,2012-10-24 18:51:00
3:51 PM,61.0,54.0,78,30.12,8.0,NE,5.8,-,N/A,,Overcast,50,2012-10-24 19:51:00
4:51 PM,61.0,54.0,78,30.12,9.0,NNE,5.8,-,N/A,,Overcast,30,2012-10-24 20:51:00
5:51 PM,60.1,53.1,78,30.14,10.0,NE,5.8,-,N/A,,Overcast,40,2012-10-24 21:51:00
6:25 PM,60.8,53.6,77,30.14,10.0,NE,5.8,-,N/A,,Overcast,40,2012-10-24 22:25:00
6:51 PM,60.1,53.1,78,30.16,10.0,NE,5.8,-,N/A,,Overcast,40,2012-10-24 22:51:00
7:51 PM,60.1,53.1,78,30.17,10.0,East,4.6,-,N/A,,Overcast,90,2012-10-24 23:51:00
8:51 PM,60.8,53.6,77,30.18,10.0,ENE,4.6,-,N/A,,Overcast,70,2012-10-25 00:51:00
9:51 PM,59.0,54.0,83,30.19,10.0,ESE,4.6,-,N/A,,Overcast,110,2012-10-25 01:51:00
10:23 PM,59.0,53.6,82,30.19,10.0,East,5.8,-,N/A,,Overcast,100,2012-10-25 02:23:00
10:51 PM,59.0,53.6,82,30.19,10.0,East,4.6,-,N/A,,Overcast,100,2012-10-25 02:51:00
11:51 PM,59.0,53.1,81,30.20,10.0,East,4.6,-,N/A,,Overcast,100,2012-10-25 03:51:00
11:58 PM,59.0,53.6,82,30.20,10.0,East,5.8,-,N/A,,Overcast,100,2012-10-25 03:58:00